[[{"header":{"parameterUnit":"m.s-1","parameterCategory":1,"la1":30.2991,"la2":30.254,"lo1":-89.0895,"lo2":-89.0444,"dy":0.0017,"dx":0.0017,"nx":28,"ny":28,"refTime":"2025-06-05T09:00:00:Z","depth":0,"parameterNumber":2,"parameterNumberName":"U-component_of_WINDS"},"data":[0,0,0,0,0,0,0,0,0,0,0,0,0,0,0,0,0,0,0,0,0,0,0,0,0,0,0,0,0,0,0,0,0,0,0,0,0,0,0,0,0,0,0,0,0,0,0,0,0,0,0,0,0,0,0,0,0,0,-1.8878,-1.8878,0,-1.8878,-1.8878,-1.8878,-1.8856,-1.8856,-1.8855,-1.8855,-1.8855,-1.8855,-1.8856,0,0,0,0,0,0,0,0,0,0,0,0,0,-1.886,-1.8861,-1.8878,-1.8878,-1.8878,-1.8878,-1.8878,-1.8878,-1.8857,-1.8856,-1.8855,-1.8855,-1.8855,-1.8855,-1.8856,0,0,0,0,0,0,0,0,0,0,0,0,0,-1.8865,-1.8861,-1.8878,-1.8867,-1.8866,-1.8878,-1.8878,-1.8878,-1.8857,-1.8856,-1.8855,-1.8854,-1.8854,-1.8855,-1.8856,-1.8877,0,0,-1.8858,-1.8859,0,0,0,0,0,0,0,0,-1.8864,-1.8865,-1.8869,-1.8868,-1.8867,-1.8866,-1.8871,-1.8877,-1.8857,-1.886,-1.8855,-1.8854,-1.8859,-1.886,-1.8861,-1.8877,-1.8877,-1.8858,-1.8859,-1.8859,-1.8859,0,0,0,0,0,0,0,-1.8864,-1.8865,-1.8878,-1.8869,-1.8868,-1.8863,-1.8862,-1.8872,-1.8864,-1.886,-1.8858,-1.8859,-1.8859,-1.8861,-1.8861,-1.8877,-1.8858,-1.8859,-1.8859,-1.886,-1.891,-1.8911,0,0,0,0,0,0,-1.8865,-1.8865,-1.8878,-1.8878,-1.8864,-1.8864,-1.8863,-1.8867,-1.8864,-1.8863,-1.8859,-1.8858,-1.886,-1.886,-1.8861,-1.8885,-1.8859,-1.886,-1.886,-1.8909,-1.891,-1.8911,0,0,0,0,0,0,-1.8865,-1.8867,-1.8878,-1.8871,-1.8872,-1.8865,-1.8869,-1.8868,-1.887,-1.8864,-1.8862,-1.8863,-1.8859,-1.886,-1.8873,-1.8885,-1.886,-1.8861,-1.8908,-1.891,-1.8911,-1.8934,0,0,0,0,0,0,-1.8865,-1.8867,-1.8875,-1.8871,-1.8872,-1.889,-1.887,-1.8868,-1.8871,-1.8869,-1.8867,-1.8866,-1.8859,-1.8872,-1.8874,-1.8886,-1.8861,-1.8907,-1.8909,-1.891,-1.8932,-1.8936,-1.8939,0,0,0,0,0,-1.8864,-1.8881,-1.8875,-1.8877,-1.8882,-1.8891,-1.8891,-1.8883,-1.8872,-1.888,-1.8876,-1.8866,-1.8884,-1.8874,-1.8876,-1.8888,-1.8906,-1.8908,-1.891,-1.8931,-1.8935,-1.8939,0,0,0,0,0,0,-1.8886,-1.8881,-1.8874,-1.8891,-1.8891,-1.8887,-1.8897,-1.8888,-1.8892,-1.8889,-1.8879,-1.8878,-1.8893,-1.8892,-1.8881,-1.8908,-1.8893,-1.8896,-1.8908,-1.8912,-1.8916,-1.8915,-1.8862,0,0,0,0,0,-1.8893,-1.89,-1.8895,-1.891,-1.8911,-1.8904,-1.8907,-1.8901,-1.8901,-1.8901,-1.8898,-1.8899,-1.8905,-1.8909,-1.8914,-1.8932,-1.8931,-1.8942,-1.8945,-1.8948,-1.895,-1.8959,-1.8963,-1.8918,-1.8918,-1.8918,0,0,-1.8907,-1.8905,-1.891,-1.8915,-1.8914,-1.8922,-1.8904,-1.8913,-1.8918,-1.8902,-1.8914,-1.8913,-1.8913,-1.8929,-1.8935,-1.8928,-1.8962,-1.8951,-1.8953,-1.8953,-1.8962,-1.8966,-1.897,-1.8919,-1.8919,-1.8919,0,0,-1.8936,-1.8936,-1.8948,-1.8948,-1.8948,-1.8943,-1.8947,-1.8944,-1.8942,-1.8954,-1.8942,-1.8948,-1.8958,-1.8959,-1.896,-1.899,-1.898,-1.8992,-1.901,-1.9019,-1.9023,-1.9026,-1.9036,-1.904,-1.8994,-1.8995,-1.8995,0,-1.8954,-1.8965,-1.8956,-1.8965,-1.8967,-1.8953,-1.8966,-1.8966,-1.8968,-1.897,-1.8961,-1.8974,-1.8973,-1.8988,-1.8996,-1.8998,-1.9,-1.8992,-1.9023,-1.9026,-1.9029,-1.9038,-1.9042,-1.8996,-1.8996,-1.8996,-1.8995,0,-1.8986,-1.8994,-1.9004,-1.9005,-1.9009,-1.902,-1.9012,-1.9017,-1.901,-1.9006,-1.9019,-1.9017,-1.9021,-1.9025,-1.9019,-1.9039,-1.9035,-1.9025,-1.901,-1.9035,-1.9043,-1.9047,-1.8998,-1.8997,-1.8997,-1.8997,0,0,-1.9028,-1.9025,-1.9029,-1.9029,-1.9028,-1.9034,-1.9044,-1.9048,-1.9052,-1.9054,-1.9062,-1.9071,-1.9062,-1.9064,-1.9058,-1.9066,-1.9089,-1.9055,-1.9055,-1.906,-1.9111,-1.9117,-1.9121,-1.9083,-1.9083,-1.9084,-1.911,0,-1.9056,-1.9073,-1.9065,-1.9083,-1.909,-1.9077,-1.9086,-1.9086,-1.9083,-1.9088,-1.9085,-1.9091,-1.9079,-1.908,-1.9088,-1.9084,-1.9098,-1.9082,-1.9089,-1.909,-1.9088,-1.9126,-1.9133,-1.9158,-1.9114,-1.9114,-1.9115,0,-1.909,-1.9093,-1.9111,-1.9109,-1.9111,-1.9119,-1.9122,-1.9128,-1.9128,-1.9125,-1.9127,-1.9119,-1.9129,-1.9115,-1.9128,-1.9117,-1.912,-1.9119,-1.912,-1.9119,-1.9103,-1.9125,-1.9166,-1.9169,-1.912,-1.912,-1.9119,0,-1.9117,-1.9126,-1.9138,-1.9139,-1.9137,-1.9143,-1.9142,-1.9142,-1.9144,-1.9147,-1.9149,-1.9153,-1.9155,-1.9158,-1.9152,-1.9142,-1.9166,-1.9151,-1.9163,-1.9163,-1.9167,-1.9167,-1.9208,-1.9171,-1.9171,-1.9171,-1.9171,0,-1.9148,-1.916,-1.9151,-1.9158,-1.917,-1.9162,-1.9175,-1.9173,-1.9172,-1.9179,-1.9168,-1.9175,-1.9166,-1.9171,-1.9166,-1.9178,-1.9179,-1.9177,-1.9175,-1.9177,-1.9177,-1.9178,-1.9175,-1.9172,-1.9172,-1.9172,-1.9171,0,-1.9181,-1.9175,-1.9187,-1.9184,-1.9184,-1.9193,-1.919,-1.9197,-1.9193,-1.9202,-1.9203,-1.9198,-1.9204,-1.9197,-1.9203,-1.92,-1.9215,-1.9211,-1.9214,-1.9213,-1.9225,-1.9223,-1.9266,-1.9271,-1.9233,-1.9233,-1.9233,0,-1.92,-1.9209,-1.9207,-1.921,-1.921,-1.9216,-1.9219,-1.9211,-1.9215,-1.9216,-1.9222,-1.9227,-1.9231,-1.9241,-1.9237,-1.9242,-1.9237,-1.9252,-1.9238,-1.9239,-1.9236,-1.9235,-1.9236,-1.9255,-1.9255,-1.9255,-1.9256,0,-1.9235,-1.9232,-1.9236,-1.924,-1.9243,-1.9246,-1.9248,-1.9251,-1.9243,-1.9248,-1.9253,-1.9256,-1.9262,-1.9267,-1.927,-1.927,-1.9261,-1.9261,-1.9263,-1.9265,-1.9266,-1.9264,-1.9221,-1.9259,-1.9259,-1.9259,-1.9258,-1.9258,-1.9261,-1.9267,-1.9267,-1.9272,-1.9273,-1.9275,-1.928,-1.9278,-1.9282,-1.9286,-1.9282,-1.9289,-1.9289,-1.9292,-1.9293,-1.9298,-1.9292,-1.9296,-1.9297,-1.9298,-1.9299,-1.9266,-1.9299,-1.9299,-1.9299,-1.9299,-1.9299,0,-1.9294,-1.9293,-1.9298,-1.9301,-1.9305,-1.9297,-1.9299,-1.9302,-1.9309,-1.931,-1.9313,-1.932,-1.9325,-1.9322,-1.9326,-1.9331,-1.9327,-1.9332,-1.9331,-1.9331,-1.9305,-1.9302,-1.9335,-1.9335,-1.9335,-1.9335,-1.9335,-1.9335,-1.9311,-1.9322,-1.9319,-1.933,-1.9329,-1.9336,-1.9338,-1.9339,-1.934,-1.9348,-1.9352,-1.935,-1.9349,-1.9353,-1.9357,-1.9356,-1.9358,-1.9364,-1.9362,-1.9337,-1.9333,-1.933,-1.9326,-1.9365,-1.9365,-1.9387,-1.9387,-1.9387]},{"header":{"parameterUnit":"m.s-1","parameterCategory":1,"la1":30.2991,"la2":30.254,"lo1":-89.0895,"lo2":-89.0444,"dy":0.0017,"dx":0.0017,"nx":28,"ny":28,"refTime":"2025-06-05T09:00:00:Z","depth":0,"parameterNumber":3,"parameterNumberName":"V-component_of_WINDS"},"data":[0,0,0,0,0,0,0,0,0,0,0,0,0,0,0,0,0,0,0,0,0,0,0,0,0,0,0,0,0,0,0,0,0,0,0,0,0,0,0,0,0,0,0,0,0,0,0,0,0,0,0,0,0,0,0,0,0,0,-0.4226,-0.4226,0,-0.4212,-0.4211,-0.4211,-0.4178,-0.4178,-0.4177,-0.4176,-0.4162,-0.4162,-0.4162,0,0,0,0,0,0,0,0,0,0,0,0,0,-0.4224,-0.4224,-0.4226,-0.4226,-0.4225,-0.4212,-0.4211,-0.4211,-0.4178,-0.4178,-0.4177,-0.4176,-0.4162,-0.4162,-0.4162,0,0,0,0,0,0,0,0,0,0,0,0,0,-0.4219,-0.4224,-0.4226,-0.4207,-0.4206,-0.4212,-0.4211,-0.4211,-0.4179,-0.4178,-0.4177,-0.4176,-0.4162,-0.4162,-0.4162,-0.4185,0,0,-0.4163,-0.4164,0,0,0,0,0,0,0,0,-0.4219,-0.4219,-0.421,-0.4209,-0.4207,-0.4196,-0.4205,-0.4202,-0.4179,-0.4189,-0.4176,-0.4175,-0.4174,-0.4173,-0.4173,-0.4184,-0.4184,-0.4163,-0.4164,-0.4164,-0.4164,0,0,0,0,0,0,0,-0.4219,-0.4219,-0.422,-0.421,-0.4208,-0.42,-0.4198,-0.4205,-0.4187,-0.4188,-0.4185,-0.4184,-0.4173,-0.4172,-0.4172,-0.4183,-0.4163,-0.4164,-0.4164,-0.4164,-0.4212,-0.4213,0,0,0,0,0,0,-0.4222,-0.422,-0.4221,-0.422,-0.421,-0.42,-0.4198,-0.42,-0.4187,-0.4184,-0.4185,-0.4183,-0.4172,-0.4172,-0.4171,-0.4196,-0.4164,-0.4164,-0.4164,-0.4211,-0.4212,-0.4213,0,0,0,0,0,0,-0.4222,-0.4223,-0.4221,-0.4219,-0.4218,-0.4202,-0.4204,-0.42,-0.42,-0.4185,-0.4182,-0.4188,-0.4171,-0.4171,-0.4182,-0.4195,-0.4164,-0.4165,-0.4209,-0.4211,-0.4213,-0.4247,0,0,0,0,0,0,-0.4223,-0.4223,-0.4232,-0.4219,-0.4218,-0.4232,-0.4205,-0.4201,-0.4201,-0.4198,-0.4187,-0.4184,-0.4171,-0.4181,-0.4182,-0.4195,-0.4165,-0.4208,-0.421,-0.4212,-0.4245,-0.425,-0.4254,0,0,0,0,0,-0.4223,-0.4242,-0.4232,-0.4233,-0.4229,-0.4233,-0.4232,-0.4216,-0.4202,-0.4211,-0.4201,-0.4184,-0.4194,-0.4183,-0.4183,-0.4197,-0.4207,-0.421,-0.4212,-0.4242,-0.4249,-0.4254,0,0,0,0,0,0,-0.4257,-0.424,-0.4229,-0.4245,-0.4241,-0.4227,-0.4237,-0.4223,-0.4222,-0.4219,-0.42,-0.4197,-0.4211,-0.4205,-0.4193,-0.4218,-0.4198,-0.42,-0.4221,-0.4227,-0.4231,-0.4232,-0.4165,0,0,0,0,0,-0.4266,-0.4271,-0.4256,-0.4272,-0.427,-0.4254,-0.4255,-0.4243,-0.4238,-0.4235,-0.4226,-0.4221,-0.4223,-0.4224,-0.4225,-0.4244,-0.424,-0.4253,-0.4258,-0.4262,-0.4264,-0.4272,-0.4278,-0.4221,-0.4221,-0.4221,0,0,-0.4286,-0.4277,-0.4281,-0.4278,-0.4273,-0.4278,-0.4253,-0.4259,-0.4262,-0.4236,-0.4246,-0.4239,-0.4232,-0.4246,-0.4252,-0.4242,-0.4279,-0.4265,-0.4268,-0.4268,-0.4275,-0.4281,-0.4286,-0.4222,-0.4222,-0.4222,0,0,-0.4324,-0.4318,-0.433,-0.4325,-0.4318,-0.4307,-0.431,-0.4298,-0.4293,-0.4302,-0.4282,-0.4286,-0.4289,-0.4285,-0.4283,-0.4318,-0.4303,-0.4319,-0.4343,-0.4352,-0.4356,-0.436,-0.4372,-0.4376,-0.4322,-0.4322,-0.4322,0,-0.4349,-0.4356,-0.4338,-0.4346,-0.4344,-0.4321,-0.4333,-0.4329,-0.4322,-0.4322,-0.431,-0.4314,-0.4307,-0.432,-0.4328,-0.4328,-0.433,-0.432,-0.4357,-0.4361,-0.4364,-0.4375,-0.438,-0.4324,-0.4323,-0.4323,-0.4323,0,-0.4387,-0.4391,-0.4402,-0.4396,-0.4396,-0.4406,-0.4389,-0.4391,-0.4379,-0.437,-0.4379,-0.437,-0.4368,-0.437,-0.4359,-0.4381,-0.4375,-0.4361,-0.434,-0.4372,-0.4382,-0.4386,-0.4326,-0.4326,-0.4325,-0.4325,0,0,-0.4446,-0.4429,-0.4433,-0.443,-0.442,-0.4423,-0.4431,-0.4429,-0.4431,-0.4427,-0.4433,-0.4436,-0.4423,-0.4421,-0.4408,-0.4416,-0.4443,-0.44,-0.44,-0.4408,-0.4466,-0.4477,-0.4482,-0.4433,-0.4434,-0.4434,-0.4466,0,-0.4481,-0.4494,-0.4478,-0.4495,-0.4498,-0.4476,-0.4483,-0.4477,-0.4468,-0.447,-0.446,-0.4462,-0.4444,-0.4443,-0.4449,-0.4439,-0.4455,-0.4436,-0.4438,-0.4438,-0.444,-0.4487,-0.4498,-0.4529,-0.447,-0.4471,-0.4471,0,-0.4524,-0.4521,-0.4538,-0.4526,-0.4527,-0.4533,-0.453,-0.4532,-0.4525,-0.4518,-0.4515,-0.45,-0.4507,-0.4487,-0.4496,-0.4483,-0.4483,-0.4478,-0.4479,-0.4478,-0.4456,-0.4487,-0.4538,-0.4543,-0.4478,-0.4477,-0.4477,0,-0.4564,-0.4565,-0.4575,-0.4573,-0.4559,-0.4564,-0.4559,-0.455,-0.455,-0.4547,-0.4546,-0.4544,-0.4543,-0.4541,-0.4526,-0.4513,-0.4536,-0.4515,-0.453,-0.453,-0.4535,-0.4535,-0.4587,-0.4536,-0.4536,-0.4536,-0.4536,0,-0.4605,-0.4616,-0.4593,-0.4599,-0.4611,-0.4592,-0.4604,-0.4596,-0.4589,-0.4592,-0.4573,-0.4577,-0.4556,-0.4558,-0.4546,-0.4554,-0.4554,-0.4548,-0.4544,-0.4549,-0.455,-0.4548,-0.4546,-0.4537,-0.4537,-0.4537,-0.4536,0,-0.4652,-0.4637,-0.4647,-0.4633,-0.4629,-0.4638,-0.4626,-0.4631,-0.462,-0.4625,-0.4625,-0.4609,-0.4609,-0.4594,-0.4592,-0.4583,-0.4597,-0.459,-0.4599,-0.4597,-0.4612,-0.461,-0.4664,-0.467,-0.4616,-0.4617,-0.4617,0,-0.4679,-0.4686,-0.4673,-0.4674,-0.4669,-0.4672,-0.4671,-0.4653,-0.4653,-0.4645,-0.465,-0.4649,-0.4647,-0.465,-0.4637,-0.4635,-0.4627,-0.4646,-0.4627,-0.4631,-0.4627,-0.4626,-0.4626,-0.465,-0.4651,-0.4652,-0.4652,0,-0.4727,-0.4719,-0.4719,-0.4716,-0.4716,-0.4713,-0.4708,-0.471,-0.469,-0.4691,-0.4692,-0.469,-0.4688,-0.4687,-0.4682,-0.4676,-0.466,-0.4658,-0.4661,-0.4666,-0.4671,-0.4667,-0.461,-0.4657,-0.4656,-0.4656,-0.4656,-0.4656,-0.4764,-0.4769,-0.4761,-0.4761,-0.4756,-0.4752,-0.4755,-0.4745,-0.4745,-0.4741,-0.4731,-0.4733,-0.4724,-0.4716,-0.4712,-0.4713,-0.4703,-0.4708,-0.4709,-0.471,-0.4712,-0.4671,-0.4712,-0.4712,-0.4711,-0.4711,-0.4711,0,-0.481,-0.4803,-0.4804,-0.4798,-0.4798,-0.4784,-0.4778,-0.4779,-0.4781,-0.4774,-0.4773,-0.4773,-0.4772,-0.4759,-0.4756,-0.4759,-0.4752,-0.4759,-0.4758,-0.4757,-0.4722,-0.4719,-0.4765,-0.4765,-0.4765,-0.4765,-0.4765,-0.4765,-0.4834,-0.4843,-0.4834,-0.4839,-0.4832,-0.4834,-0.4831,-0.4828,-0.4822,-0.4823,-0.4822,-0.4814,-0.4804,-0.4801,-0.4799,-0.4795,-0.4794,-0.4804,-0.4797,-0.4765,-0.4759,-0.4754,-0.4752,-0.4804,-0.4804,-0.4832,-0.4833,-0.4833]}]]